Year,Month,Day,Hour,Minute,Value (Times are PST for temperature in C)
2018,11,27,00,00,10.80
2018,11,27,00,01,10.80
2018,11,27,00,02,10.80
2018,11,27,00,03,10.80
2018,11,27,00,04,10.80
2018,11,27,00,05,10.80
2018,11,27,00,06,10.80
2018,11,27,00,07,10.80
2018,11,27,00,08,10.80
2018,11,27,00,09,10.80
2018,11,27,00,10,10.80
2018,11,27,00,11,10.80
2018,11,27,00,12,10.80
2018,11,27,00,13,10.80
2018,11,27,00,14,10.80
2018,11,27,00,15,10.80
2018,11,27,00,16,10.80
2018,11,27,00,17,10.80
2018,11,27,00,18,10.80
2018,11,27,00,19,10.80
2018,11,27,00,20,10.90
2018,11,27,00,21,10.90
2018,11,27,00,22,10.90
2018,11,27,00,23,10.90
2018,11,27,00,24,10.90
2018,11,27,00,25,10.90
2018,11,27,00,26,10.90
2018,11,27,00,27,10.90
2018,11,27,00,28,10.90
2018,11,27,00,29,11.00
2018,11,27,00,30,11.00
2018,11,27,00,31,11.00
2018,11,27,00,32,11.10
2018,11,27,00,33,11.10
2018,11,27,00,34,11.10
2018,11,27,00,35,11.10
2018,11,27,00,36,11.20
2018,11,27,00,37,11.20
2018,11,27,00,38,11.20
2018,11,27,00,39,11.20
2018,11,27,00,40,11.20
2018,11,27,00,41,11.30
2018,11,27,00,42,11.30
2018,11,27,00,43,11.30
2018,11,27,00,44,11.30
2018,11,27,00,45,11.30
2018,11,27,00,46,11.30
2018,11,27,00,47,11.30
2018,11,27,00,48,11.30
2018,11,27,00,49,11.30
2018,11,27,00,50,11.30
2018,11,27,00,51,11.30
2018,11,27,00,52,11.30
2018,11,27,00,53,11.30
2018,11,27,00,54,11.30
2018,11,27,00,55,11.30
2018,11,27,00,56,11.30
2018,11,27,00,57,11.30
2018,11,27,00,58,11.30
2018,11,27,00,59,11.30
2018,11,27,01,00,11.30
2018,11,27,01,01,11.30
2018,11,27,01,02,11.30
2018,11,27,01,03,11.30
2018,11,27,01,04,11.30
2018,11,27,01,05,11.30
2018,11,27,01,06,11.30
2018,11,27,01,07,11.30
2018,11,27,01,08,11.30
2018,11,27,01,09,11.30
2018,11,27,01,10,11.30
2018,11,27,01,11,11.30
2018,11,27,01,12,11.30
2018,11,27,01,13,11.30
2018,11,27,01,14,11.30
2018,11,27,01,15,11.30
2018,11,27,01,16,11.30
2018,11,27,01,17,11.30
2018,11,27,01,18,11.30
2018,11,27,01,19,11.30
2018,11,27,01,20,11.30
2018,11,27,01,21,11.30
2018,11,27,01,22,11.30
2018,11,27,01,23,11.30
2018,11,27,01,24,11.30
2018,11,27,01,25,11.30
2018,11,27,01,26,11.30
2018,11,27,01,27,11.30
2018,11,27,01,28,11.30
2018,11,27,01,29,11.30
2018,11,27,01,30,11.30
2018,11,27,01,31,11.30
2018,11,27,01,32,11.30
2018,11,27,01,33,11.20
2018,11,27,01,34,11.20
2018,11,27,01,35,11.20
2018,11,27,01,36,11.20
2018,11,27,01,37,11.20
2018,11,27,01,38,11.20
2018,11,27,01,39,11.20
2018,11,27,01,40,11.20
2018,11,27,01,41,11.20
2018,11,27,01,42,11.20
2018,11,27,01,43,11.20
2018,11,27,01,44,11.20
2018,11,27,01,45,11.20
2018,11,27,01,46,11.20
2018,11,27,01,47,11.20
2018,11,27,01,48,11.20
2018,11,27,01,49,11.20
2018,11,27,01,50,11.20
2018,11,27,01,51,11.20
2018,11,27,01,52,11.20
2018,11,27,01,53,11.20
2018,11,27,01,54,11.20
2018,11,27,01,55,11.10
2018,11,27,01,56,11.10
2018,11,27,01,57,11.10
2018,11,27,01,58,11.10
2018,11,27,01,59,11.10
2018,11,27,02,00,11.00
2018,11,27,02,01,11.00
2018,11,27,02,02,10.90
2018,11,27,02,03,10.90
2018,11,27,02,04,10.90
2018,11,27,02,05,10.90
2018,11,27,02,06,10.90
2018,11,27,02,07,10.90
2018,11,27,02,08,10.90
2018,11,27,02,09,10.90
2018,11,27,02,10,10.90
2018,11,27,02,11,10.90
2018,11,27,02,12,10.90
2018,11,27,02,13,10.90
2018,11,27,02,14,10.90
2018,11,27,02,15,10.90
2018,11,27,02,16,10.90
2018,11,27,02,17,10.90
2018,11,27,02,18,10.90
2018,11,27,02,19,10.90
2018,11,27,02,20,10.90
2018,11,27,02,21,10.90
2018,11,27,02,22,10.90
2018,11,27,02,23,10.80
2018,11,27,02,24,10.80
2018,11,27,02,25,10.90
2018,11,27,02,26,10.90
2018,11,27,02,27,10.90
2018,11,27,02,28,10.90
2018,11,27,02,29,10.90
2018,11,27,02,30,10.90
2018,11,27,02,31,10.90
2018,11,27,02,32,10.90
2018,11,27,02,33,10.90
2018,11,27,02,34,10.90
2018,11,27,02,35,10.90
2018,11,27,02,36,10.80
2018,11,27,02,37,10.80
2018,11,27,02,38,10.80
2018,11,27,02,39,10.80
2018,11,27,02,40,10.80
2018,11,27,02,41,10.80
2018,11,27,02,42,10.80
2018,11,27,02,43,10.80
2018,11,27,02,44,10.80
2018,11,27,02,45,10.80
2018,11,27,02,46,10.80
2018,11,27,02,47,10.80
2018,11,27,02,48,10.80
2018,11,27,02,49,10.80
2018,11,27,02,50,10.80
2018,11,27,02,51,10.80
2018,11,27,02,52,10.80
2018,11,27,02,53,10.80
2018,11,27,02,54,10.80
2018,11,27,02,55,10.80
2018,11,27,02,56,10.80
2018,11,27,02,57,10.80
2018,11,27,02,58,10.80
2018,11,27,02,59,10.90
2018,11,27,03,00,10.90
2018,11,27,03,01,10.90
2018,11,27,03,02,10.90
2018,11,27,03,03,11.00
2018,11,27,03,04,11.00
2018,11,27,03,05,11.00
2018,11,27,03,06,11.00
2018,11,27,03,07,11.00
2018,11,27,03,08,11.00
2018,11,27,03,09,11.00
2018,11,27,03,10,11.00
2018,11,27,03,11,11.00
2018,11,27,03,12,11.00
2018,11,27,03,13,11.10
2018,11,27,03,14,11.20
2018,11,27,03,15,11.20
2018,11,27,03,16,11.20
2018,11,27,03,17,11.20
2018,11,27,03,18,11.20
2018,11,27,03,19,11.20
2018,11,27,03,20,11.30
2018,11,27,03,21,11.30
2018,11,27,03,22,11.40
2018,11,27,03,23,11.40
2018,11,27,03,24,11.50
2018,11,27,03,25,11.60
2018,11,27,03,26,11.70
2018,11,27,03,27,11.80
2018,11,27,03,28,11.80
2018,11,27,03,29,11.90
2018,11,27,03,30,11.90
2018,11,27,03,31,12.00
2018,11,27,03,32,12.10
2018,11,27,03,33,12.10
2018,11,27,03,34,12.10
2018,11,27,03,35,12.20
2018,11,27,03,36,12.20
2018,11,27,03,37,12.20
2018,11,27,03,38,12.20
2018,11,27,03,39,12.20
2018,11,27,03,40,12.20
2018,11,27,03,41,12.20
2018,11,27,03,42,12.30
2018,11,27,03,43,12.30
2018,11,27,03,44,12.30
2018,11,27,03,45,12.30
2018,11,27,03,46,12.30
2018,11,27,03,47,12.40
2018,11,27,03,48,12.40
2018,11,27,03,49,12.40
2018,11,27,03,50,12.50
2018,11,27,03,51,12.50
2018,11,27,03,52,12.60
2018,11,27,03,53,12.60
2018,11,27,03,54,12.60
2018,11,27,03,55,12.60
2018,11,27,03,56,12.60
2018,11,27,03,57,12.70
2018,11,27,03,58,12.80
2018,11,27,03,59,12.80
2018,11,27,04,00,12.80
2018,11,27,04,01,12.90
2018,11,27,04,02,12.90
2018,11,27,04,03,12.90
2018,11,27,04,04,12.90
2018,11,27,04,05,12.90
2018,11,27,04,06,13.00
2018,11,27,04,07,13.10
2018,11,27,04,08,13.10
2018,11,27,04,09,13.10
2018,11,27,04,10,13.20
2018,11,27,04,11,13.30
2018,11,27,04,12,13.30
2018,11,27,04,13,13.40
2018,11,27,04,14,13.40
2018,11,27,04,15,13.40
2018,11,27,04,16,13.40
2018,11,27,04,17,13.40
2018,11,27,04,18,13.40
2018,11,27,04,19,13.30
2018,11,27,04,20,13.30
2018,11,27,04,21,13.30
2018,11,27,04,22,13.20
2018,11,27,04,23,13.20
2018,11,27,04,24,13.20
2018,11,27,04,25,13.10
2018,11,27,04,26,13.10
2018,11,27,04,27,13.10
2018,11,27,04,28,13.10
2018,11,27,04,29,13.00
2018,11,27,04,30,13.00
2018,11,27,04,31,12.90
2018,11,27,04,32,12.90
2018,11,27,04,33,12.90
2018,11,27,04,34,12.90
2018,11,27,04,35,12.80
2018,11,27,04,36,12.80
2018,11,27,04,37,12.80
2018,11,27,04,38,12.80
2018,11,27,04,39,12.80
2018,11,27,04,40,12.70
2018,11,27,04,41,12.70
2018,11,27,04,42,12.70
2018,11,27,04,43,12.70
2018,11,27,04,44,12.70
2018,11,27,04,45,12.70
2018,11,27,04,46,12.60
2018,11,27,04,47,12.60
2018,11,27,04,48,12.70
2018,11,27,04,49,12.70
2018,11,27,04,50,12.70
2018,11,27,04,51,12.70
2018,11,27,04,52,12.70
2018,11,27,04,53,12.70
2018,11,27,04,54,12.70
2018,11,27,04,55,12.70
2018,11,27,04,56,12.70
2018,11,27,04,57,12.70
2018,11,27,04,58,12.70
2018,11,27,04,59,12.60
2018,11,27,05,00,12.60
2018,11,27,05,01,12.50
2018,11,27,05,02,12.40
2018,11,27,05,03,12.40
2018,11,27,05,04,12.40
2018,11,27,05,05,12.40
2018,11,27,05,06,12.40
2018,11,27,05,07,12.40
2018,11,27,05,08,12.40
2018,11,27,05,09,12.30
2018,11,27,05,10,12.30
2018,11,27,05,11,12.30
2018,11,27,05,12,12.40
2018,11,27,05,13,12.40
2018,11,27,05,14,12.40
2018,11,27,05,15,12.40
2018,11,27,05,16,12.40
2018,11,27,05,17,12.40
2018,11,27,05,18,12.40
2018,11,27,05,19,12.50
2018,11,27,05,20,12.40
2018,11,27,05,21,12.40
2018,11,27,05,22,12.40
2018,11,27,05,23,12.30
2018,11,27,05,24,12.30
2018,11,27,05,25,12.30
2018,11,27,05,26,12.40
2018,11,27,05,27,12.40
2018,11,27,05,28,12.40
2018,11,27,05,29,12.40
2018,11,27,05,30,12.50
2018,11,27,05,31,12.50
2018,11,27,05,32,12.50
2018,11,27,05,33,12.50
2018,11,27,05,34,12.50
2018,11,27,05,35,12.40
2018,11,27,05,36,12.40
2018,11,27,05,37,12.40
2018,11,27,05,38,12.40
2018,11,27,05,39,12.40
2018,11,27,05,40,12.30
2018,11,27,05,41,12.30
2018,11,27,05,42,12.30
2018,11,27,05,43,12.30
2018,11,27,05,44,12.30
2018,11,27,05,45,12.30
2018,11,27,05,46,12.30
2018,11,27,05,47,12.30
2018,11,27,05,48,12.30
2018,11,27,05,49,12.30
2018,11,27,05,50,12.20
2018,11,27,05,51,12.20
2018,11,27,05,52,12.20
2018,11,27,05,53,12.20
2018,11,27,05,54,12.20
2018,11,27,05,55,12.20
2018,11,27,05,56,12.10
2018,11,27,05,57,12.10
2018,11,27,05,58,12.10
2018,11,27,05,59,12.10
2018,11,27,06,00,12.10
2018,11,27,06,01,12.10
2018,11,27,06,02,12.10
2018,11,27,06,03,12.10
2018,11,27,06,04,12.10
2018,11,27,06,05,12.10
2018,11,27,06,06,12.00
2018,11,27,06,07,12.00
2018,11,27,06,08,12.00
2018,11,27,06,09,11.90
2018,11,27,06,10,11.90
2018,11,27,06,11,11.90
2018,11,27,06,12,11.90
2018,11,27,06,13,11.90
2018,11,27,06,14,11.90
2018,11,27,06,15,11.90
2018,11,27,06,16,11.90
2018,11,27,06,17,11.90
2018,11,27,06,18,12.00
2018,11,27,06,19,12.00
2018,11,27,06,20,12.00
2018,11,27,06,21,12.00
2018,11,27,06,22,12.00
2018,11,27,06,23,12.00
2018,11,27,06,24,12.00
2018,11,27,06,25,12.00
2018,11,27,06,26,11.90
2018,11,27,06,27,11.90
2018,11,27,06,28,11.90
2018,11,27,06,29,11.90
2018,11,27,06,30,11.90
2018,11,27,06,31,11.90
2018,11,27,06,32,11.90
2018,11,27,06,33,11.90
2018,11,27,06,34,11.90
2018,11,27,06,35,11.90
2018,11,27,06,36,11.90
2018,11,27,06,37,11.90
2018,11,27,06,38,11.90
2018,11,27,06,39,11.90
2018,11,27,06,40,11.90
2018,11,27,06,41,11.90
2018,11,27,06,42,11.80
2018,11,27,06,43,11.80
2018,11,27,06,44,11.80
2018,11,27,06,45,11.80
2018,11,27,06,46,11.70
2018,11,27,06,47,11.70
2018,11,27,06,48,11.80
2018,11,27,06,50,11.80
2018,11,27,06,51,11.80
2018,11,27,06,52,11.90
2018,11,27,06,53,11.90
2018,11,27,06,54,11.90
2018,11,27,06,55,11.90
2018,11,27,06,56,11.90
2018,11,27,06,57,11.90
2018,11,27,06,58,11.90
2018,11,27,06,59,11.90
2018,11,27,07,00,11.90
2018,11,27,07,01,11.90
2018,11,27,07,02,11.90
2018,11,27,07,03,11.90
2018,11,27,07,04,11.90
2018,11,27,07,05,11.90
2018,11,27,07,06,11.90
2018,11,27,07,07,11.90
2018,11,27,07,08,11.90
2018,11,27,07,09,11.90
2018,11,27,07,10,11.90
2018,11,27,07,11,11.90
2018,11,27,07,12,11.90
2018,11,27,07,13,11.90
2018,11,27,07,14,11.90
2018,11,27,07,15,11.90
2018,11,27,07,16,11.90
2018,11,27,07,17,11.90
2018,11,27,07,18,11.90
2018,11,27,07,19,11.90
2018,11,27,07,20,11.90
2018,11,27,07,21,11.90
2018,11,27,07,22,11.90
2018,11,27,07,23,11.90
2018,11,27,07,24,11.90
2018,11,27,07,25,11.90
2018,11,27,07,26,11.90
2018,11,27,07,27,12.00
2018,11,27,07,28,12.00
2018,11,27,07,29,12.00
2018,11,27,07,30,12.10
2018,11,27,07,31,12.10
2018,11,27,07,32,12.10
2018,11,27,07,33,12.00
2018,11,27,07,34,12.00
2018,11,27,07,35,12.00
2018,11,27,07,36,11.90
2018,11,27,07,37,11.90
2018,11,27,07,38,11.90
2018,11,27,07,39,11.90
2018,11,27,07,40,11.80
2018,11,27,07,41,11.80
2018,11,27,07,42,11.80
2018,11,27,07,43,11.80
2018,11,27,07,44,11.80
2018,11,27,07,45,11.80
2018,11,27,07,46,11.80
2018,11,27,07,47,11.80
2018,11,27,07,48,11.80
2018,11,27,07,49,11.70
2018,11,27,07,50,11.70
2018,11,27,07,51,11.70
2018,11,27,07,52,11.70
2018,11,27,07,53,11.70
2018,11,27,07,54,11.70
2018,11,27,07,55,11.70
2018,11,27,07,56,11.70
2018,11,27,07,57,11.70
2018,11,27,07,58,11.70
2018,11,27,07,59,11.80
2018,11,27,08,00,11.70
2018,11,27,08,01,11.80
2018,11,27,08,02,11.80
2018,11,27,08,03,11.80
2018,11,27,08,04,11.80
2018,11,27,08,05,11.80
2018,11,27,08,06,11.80
2018,11,27,08,07,11.80
2018,11,27,08,08,11.80
2018,11,27,08,09,11.80
2018,11,27,08,10,11.80
2018,11,27,08,11,11.80
2018,11,27,08,12,11.80
2018,11,27,08,13,11.80
2018,11,27,08,14,11.80
2018,11,27,08,15,11.80
2018,11,27,08,16,11.80
2018,11,27,08,17,11.80
2018,11,27,08,18,11.80
2018,11,27,08,19,11.80
2018,11,27,08,20,11.80
2018,11,27,08,21,11.80
2018,11,27,08,22,11.80
2018,11,27,08,23,11.70
2018,11,27,08,24,11.70
2018,11,27,08,25,11.70
2018,11,27,08,26,11.70
2018,11,27,08,27,11.70
2018,11,27,08,28,11.70
2018,11,27,08,29,11.60
2018,11,27,08,30,11.60
2018,11,27,08,31,11.60
2018,11,27,08,32,11.60
2018,11,27,08,33,11.60
2018,11,27,08,34,11.50
2018,11,27,08,35,11.50
2018,11,27,08,36,11.50
2018,11,27,08,37,11.40
2018,11,27,08,38,11.40
2018,11,27,08,39,11.40
2018,11,27,08,40,11.40
2018,11,27,08,41,11.40
2018,11,27,08,42,11.40
2018,11,27,08,43,11.40
2018,11,27,08,44,11.30
2018,11,27,08,45,11.30
2018,11,27,08,46,11.30
2018,11,27,08,47,11.30
2018,11,27,08,48,11.30
2018,11,27,08,49,11.30
2018,11,27,08,50,11.30
2018,11,27,08,51,11.30
2018,11,27,08,52,11.30
2018,11,27,08,53,11.20
2018,11,27,08,54,11.20
2018,11,27,08,55,11.20
2018,11,27,08,56,11.20
2018,11,27,08,57,11.20
2018,11,27,08,58,11.20
2018,11,27,08,59,11.20
2018,11,27,09,00,11.20
2018,11,27,09,01,11.30
2018,11,27,09,02,11.30
2018,11,27,09,03,11.30
2018,11,27,09,04,11.30
2018,11,27,09,05,11.30
2018,11,27,09,06,11.30
2018,11,27,09,07,11.30
2018,11,27,09,08,11.30
2018,11,27,09,09,11.30
2018,11,27,09,10,11.30
2018,11,27,09,11,11.30
2018,11,27,09,12,11.30
2018,11,27,09,13,11.40
2018,11,27,09,14,11.40
2018,11,27,09,15,11.40
2018,11,27,09,16,11.50
2018,11,27,09,17,11.60
2018,11,27,09,18,11.60
2018,11,27,09,19,11.60
2018,11,27,09,20,11.60
2018,11,27,09,21,11.60
2018,11,27,09,22,11.60
2018,11,27,09,23,11.60
2018,11,27,09,24,11.60
2018,11,27,09,25,11.60
2018,11,27,09,26,11.60
2018,11,27,09,27,11.60
2018,11,27,09,28,11.60
2018,11,27,09,29,11.60
2018,11,27,09,30,11.60
2018,11,27,09,31,11.60
2018,11,27,09,32,11.70
2018,11,27,09,33,11.70
2018,11,27,09,34,11.70
2018,11,27,09,35,11.70
2018,11,27,09,36,11.70
2018,11,27,09,37,11.70
2018,11,27,09,38,11.70
2018,11,27,09,39,11.70
2018,11,27,09,40,11.70
2018,11,27,09,41,11.70
2018,11,27,09,42,11.70
2018,11,27,09,43,11.70
2018,11,27,09,44,11.70
2018,11,27,09,45,11.70
2018,11,27,09,46,11.70
2018,11,27,09,47,11.70
2018,11,27,09,48,11.70
2018,11,27,09,49,11.70
2018,11,27,09,50,11.70
2018,11,27,09,51,11.70
2018,11,27,09,52,11.70
2018,11,27,09,53,11.80
2018,11,27,09,54,11.80
2018,11,27,09,55,11.80
2018,11,27,09,56,11.80
2018,11,27,09,57,11.80
2018,11,27,09,58,11.80
2018,11,27,09,59,11.80
2018,11,27,10,00,11.80
2018,11,27,10,01,11.80
2018,11,27,10,02,11.80
2018,11,27,10,03,11.80
2018,11,27,10,04,11.90
2018,11,27,10,05,11.80
2018,11,27,10,06,11.80
2018,11,27,10,07,11.80
2018,11,27,10,08,11.80
2018,11,27,10,09,11.80
2018,11,27,10,10,11.80
2018,11,27,10,11,11.80
2018,11,27,10,12,11.80
2018,11,27,10,13,11.90
2018,11,27,10,14,11.80
2018,11,27,10,15,11.80
2018,11,27,10,16,11.80
2018,11,27,10,17,11.80
2018,11,27,10,18,11.80
2018,11,27,10,19,11.80
2018,11,27,10,20,11.80
2018,11,27,10,21,11.80
2018,11,27,10,22,11.80
2018,11,27,10,23,11.90
2018,11,27,10,24,11.90
2018,11,27,10,25,11.90
2018,11,27,10,26,11.90
2018,11,27,10,27,11.90
2018,11,27,10,28,11.90
2018,11,27,10,29,11.90
2018,11,27,10,30,11.90
2018,11,27,10,31,12.00
2018,11,27,10,32,12.00
2018,11,27,10,33,12.00
2018,11,27,10,34,12.00
2018,11,27,10,35,12.10
2018,11,27,10,36,12.10
2018,11,27,10,37,12.10
2018,11,27,10,38,12.20
2018,11,27,10,39,12.20
2018,11,27,10,40,12.20
2018,11,27,10,41,12.20
2018,11,27,10,42,12.20
2018,11,27,10,43,12.20
2018,11,27,10,44,12.30
2018,11,27,10,45,12.30
2018,11,27,10,46,12.30
2018,11,27,10,47,12.30
2018,11,27,10,48,12.30
2018,11,27,10,49,12.30
2018,11,27,10,50,12.30
2018,11,27,10,51,12.40
2018,11,27,10,52,12.40
2018,11,27,10,53,12.40
2018,11,27,10,54,12.40
2018,11,27,10,55,12.50
2018,11,27,10,56,12.50
2018,11,27,10,57,12.50
2018,11,27,10,58,12.50
2018,11,27,10,59,12.60
2018,11,27,11,00,12.60
2018,11,27,11,01,12.60
2018,11,27,11,02,12.70
2018,11,27,11,03,12.70
2018,11,27,11,04,12.70
2018,11,27,11,05,12.70
2018,11,27,11,06,12.70
2018,11,27,11,07,12.80
2018,11,27,11,08,12.80
2018,11,27,11,09,12.80
2018,11,27,11,10,12.80
2018,11,27,11,11,12.80
2018,11,27,11,12,12.80
2018,11,27,11,13,12.80
2018,11,27,11,14,12.80
2018,11,27,11,15,12.90
2018,11,27,11,16,12.90
2018,11,27,11,17,12.90
2018,11,27,11,18,12.80
2018,11,27,11,19,12.80
2018,11,27,11,20,12.80
2018,11,27,11,21,12.80
2018,11,27,11,22,12.80
2018,11,27,11,23,12.80
2018,11,27,11,24,12.80
2018,11,27,11,25,12.80
2018,11,27,11,26,12.80
2018,11,27,11,27,12.70
2018,11,27,11,28,12.70
2018,11,27,11,29,12.70
2018,11,27,11,30,12.70
2018,11,27,11,31,12.70
2018,11,27,11,32,12.70
2018,11,27,11,33,12.70
2018,11,27,11,34,12.70
2018,11,27,11,35,12.70
2018,11,27,11,36,12.70
2018,11,27,11,37,12.70
2018,11,27,11,38,12.60
2018,11,27,11,39,12.60
2018,11,27,11,40,12.60
2018,11,27,11,41,12.60
2018,11,27,11,42,12.60
2018,11,27,11,43,12.60
2018,11,27,11,44,12.60
2018,11,27,11,45,12.60
2018,11,27,11,46,12.60
2018,11,27,11,47,12.60
2018,11,27,11,48,12.60
2018,11,27,11,49,12.60
2018,11,27,11,50,12.60
2018,11,27,11,51,12.50
2018,11,27,11,52,12.50
2018,11,27,11,53,12.50
2018,11,27,11,54,12.50
2018,11,27,11,55,12.50
2018,11,27,11,56,12.50
2018,11,27,11,57,12.40
2018,11,27,11,58,12.40
2018,11,27,11,59,12.40
2018,11,27,12,00,12.40
2018,11,27,12,01,12.40
2018,11,27,12,02,12.40
2018,11,27,12,03,12.40
2018,11,27,12,04,12.30
2018,11,27,12,05,12.30
2018,11,27,12,06,12.20
2018,11,27,12,07,12.20
2018,11,27,12,08,12.10
2018,11,27,12,09,12.10
2018,11,27,12,10,12.10
2018,11,27,12,11,12.00
2018,11,27,12,12,11.90
2018,11,27,12,13,11.90
2018,11,27,12,14,11.80
2018,11,27,12,15,11.80
2018,11,27,12,16,11.80
2018,11,27,12,17,11.80
2018,11,27,12,18,11.70
2018,11,27,12,19,11.70
2018,11,27,12,20,11.70
2018,11,27,12,21,11.60
2018,11,27,12,22,11.60
2018,11,27,12,23,11.50
2018,11,27,12,24,11.40
2018,11,27,12,25,11.40
2018,11,27,12,26,11.40
2018,11,27,12,27,11.30
2018,11,27,12,28,11.30
2018,11,27,12,29,11.20
2018,11,27,12,30,11.20
2018,11,27,12,31,11.20
2018,11,27,12,32,11.10
2018,11,27,12,33,11.10
2018,11,27,12,34,11.00
2018,11,27,12,35,10.90
2018,11,27,12,36,10.80
2018,11,27,12,37,10.80
2018,11,27,12,38,10.70
2018,11,27,12,39,10.70
2018,11,27,12,40,10.70
2018,11,27,12,41,10.70
2018,11,27,12,42,10.70
2018,11,27,12,43,10.60
2018,11,27,12,44,10.60
2018,11,27,12,45,10.60
2018,11,27,12,46,10.60
2018,11,27,12,47,10.50
2018,11,27,12,48,10.40
2018,11,27,12,49,10.40
2018,11,27,12,50,10.30
2018,11,27,12,51,10.30
2018,11,27,12,52,10.20
2018,11,27,12,53,10.20
2018,11,27,12,54,10.10
2018,11,27,12,55,10.00
2018,11,27,12,56,9.90
2018,11,27,12,57,9.90
2018,11,27,12,58,9.90
2018,11,27,12,59,9.80
2018,11,27,13,00,9.80
2018,11,27,13,01,9.80
2018,11,27,13,02,9.80
2018,11,27,13,03,9.80
2018,11,27,13,04,9.70
2018,11,27,13,05,9.70
2018,11,27,13,06,9.70
2018,11,27,13,07,9.80
2018,11,27,13,08,9.80
2018,11,27,13,09,9.80
2018,11,27,13,10,9.80
2018,11,27,13,11,9.80
2018,11,27,13,12,9.70
2018,11,27,13,13,9.70
2018,11,27,13,14,9.70
2018,11,27,13,15,9.70
2018,11,27,13,17,9.70
2018,11,27,13,18,9.80
2018,11,27,13,19,9.80
2018,11,27,13,20,9.80
2018,11,27,13,21,9.80
2018,11,27,13,22,9.80
2018,11,27,13,23,9.80
2018,11,27,13,24,9.80
2018,11,27,13,25,9.80
2018,11,27,13,26,9.80
2018,11,27,13,27,9.80
2018,11,27,13,28,9.80
2018,11,27,13,29,9.70
2018,11,27,13,30,9.70
2018,11,27,13,31,9.70
2018,11,27,13,32,9.70
2018,11,27,13,33,9.70
2018,11,27,13,34,9.70
2018,11,27,13,35,9.70
2018,11,27,13,36,9.70
2018,11,27,13,37,9.60
2018,11,27,13,38,9.60
2018,11,27,13,39,9.60
2018,11,27,13,40,9.60
2018,11,27,13,41,9.60
2018,11,27,13,42,9.60
2018,11,27,13,43,9.50
2018,11,27,13,44,9.50
2018,11,27,13,45,9.40
2018,11,27,13,46,9.40
2018,11,27,13,47,9.40
2018,11,27,13,48,9.40
2018,11,27,13,49,9.30
2018,11,27,13,50,9.30
2018,11,27,13,51,9.30
2018,11,27,13,52,9.30
2018,11,27,13,53,9.30
2018,11,27,13,54,9.30
2018,11,27,13,55,9.30
2018,11,27,13,56,9.20
2018,11,27,13,57,9.20
2018,11,27,13,58,9.20
2018,11,27,13,59,9.20
2018,11,27,14,00,9.20
2018,11,27,14,01,9.20
2018,11,27,14,02,9.20
2018,11,27,14,03,9.20
2018,11,27,14,04,9.20
2018,11,27,14,05,9.20
2018,11,27,14,06,9.20
2018,11,27,14,07,9.10
2018,11,27,14,08,9.10
2018,11,27,14,09,9.10
2018,11,27,14,10,9.10
2018,11,27,14,11,9.10
2018,11,27,14,12,9.20
2018,11,27,14,13,9.10
2018,11,27,14,14,9.20
2018,11,27,14,15,9.20
2018,11,27,14,16,9.20
2018,11,27,14,17,9.20
2018,11,27,14,18,9.10
2018,11,27,14,19,9.10
2018,11,27,14,20,9.10
2018,11,27,14,21,9.10
2018,11,27,14,22,9.10
2018,11,27,14,23,9.10
2018,11,27,14,24,9.10
2018,11,27,14,25,9.10
2018,11,27,14,26,9.10
2018,11,27,14,27,9.10
2018,11,27,14,28,9.10
2018,11,27,14,29,9.10
2018,11,27,14,30,9.10
2018,11,27,14,31,9.10
2018,11,27,14,32,9.10
2018,11,27,14,33,9.10
2018,11,27,14,34,9.10
2018,11,27,14,35,9.10
2018,11,27,14,36,9.10
2018,11,27,14,37,9.00
2018,11,27,14,38,9.10
2018,11,27,14,39,9.00
2018,11,27,14,40,9.00
2018,11,27,14,41,9.00
2018,11,27,14,42,9.00
2018,11,27,14,43,9.00
2018,11,27,14,44,9.00
2018,11,27,14,45,9.10
2018,11,27,14,46,9.10
2018,11,27,14,47,9.10
2018,11,27,14,48,9.10
2018,11,27,14,49,9.10
2018,11,27,14,50,9.10
2018,11,27,14,51,9.10
2018,11,27,14,52,9.00
2018,11,27,14,53,9.10
2018,11,27,14,54,9.00
2018,11,27,14,55,9.00
2018,11,27,14,56,9.00
2018,11,27,14,57,9.00
2018,11,27,14,58,9.00
2018,11,27,14,59,9.00
2018,11,27,15,00,9.00
2018,11,27,15,01,9.00
2018,11,27,15,02,9.00
2018,11,27,15,03,9.00
2018,11,27,15,04,9.00
2018,11,27,15,05,9.00
2018,11,27,15,06,9.00
2018,11,27,15,07,9.00
2018,11,27,15,08,9.00
2018,11,27,15,09,9.00
2018,11,27,15,10,8.90
2018,11,27,15,11,8.90
2018,11,27,15,12,8.90
2018,11,27,15,13,8.90
2018,11,27,15,14,8.90
2018,11,27,15,15,8.90
2018,11,27,15,16,8.90
2018,11,27,15,17,8.90
2018,11,27,15,18,8.90
2018,11,27,15,19,8.90
2018,11,27,15,20,8.90
2018,11,27,15,21,8.90
2018,11,27,15,22,8.90
2018,11,27,15,23,8.90
2018,11,27,15,24,8.90
2018,11,27,15,25,8.90
2018,11,27,15,26,8.90
2018,11,27,15,27,9.00
2018,11,27,15,28,9.00
2018,11,27,15,29,8.90
2018,11,27,15,30,8.90
2018,11,27,15,31,8.90
2018,11,27,15,32,8.90
2018,11,27,15,33,8.90
2018,11,27,15,34,8.90
2018,11,27,15,35,8.90
2018,11,27,15,36,8.90
2018,11,27,15,37,8.90
2018,11,27,15,38,8.90
2018,11,27,15,39,8.90
2018,11,27,15,40,8.90
2018,11,27,15,41,8.90
2018,11,27,15,42,8.90
2018,11,27,15,43,8.90
2018,11,27,15,44,8.90
2018,11,27,15,45,8.90
2018,11,27,15,46,8.90
2018,11,27,15,47,8.90
2018,11,27,15,48,8.90
2018,11,27,15,49,8.90
2018,11,27,15,50,8.90
2018,11,27,15,51,8.90
2018,11,27,15,52,8.90
2018,11,27,15,53,8.90
2018,11,27,15,54,8.90
2018,11,27,15,55,8.80
2018,11,27,15,56,8.80
2018,11,27,15,57,8.80
2018,11,27,15,58,8.80
2018,11,27,15,59,8.80
2018,11,27,16,00,8.80
2018,11,27,16,01,8.80
2018,11,27,16,02,8.80
2018,11,27,16,03,8.80
2018,11,27,16,04,8.80
2018,11,27,16,05,8.80
2018,11,27,16,06,8.80
2018,11,27,16,07,8.80
2018,11,27,16,08,8.80
2018,11,27,16,09,8.80
2018,11,27,16,10,8.80
2018,11,27,16,11,8.80
2018,11,27,16,12,8.80
2018,11,27,16,13,8.80
2018,11,27,16,14,8.70
2018,11,27,16,15,8.70
2018,11,27,16,16,8.70
2018,11,27,16,17,8.70
2018,11,27,16,18,8.70
2018,11,27,16,19,8.70
2018,11,27,16,20,8.80
2018,11,27,16,21,8.80
2018,11,27,16,22,8.80
2018,11,27,16,23,8.80
2018,11,27,16,24,8.80
2018,11,27,16,25,8.70
2018,11,27,16,26,8.70
2018,11,27,16,27,8.70
2018,11,27,16,28,8.80
2018,11,27,16,29,8.80
2018,11,27,16,30,8.70
2018,11,27,16,31,8.70
2018,11,27,16,32,8.70
2018,11,27,16,33,8.70
2018,11,27,16,34,8.70
2018,11,27,16,35,8.70
2018,11,27,16,36,8.70
2018,11,27,16,37,8.70
2018,11,27,16,38,8.70
2018,11,27,16,39,8.70
2018,11,27,16,40,8.70
2018,11,27,16,41,8.70
2018,11,27,16,42,8.70
2018,11,27,16,43,8.70
2018,11,27,16,44,8.80
2018,11,27,16,45,8.80
2018,11,27,16,46,8.80
2018,11,27,16,47,8.80
2018,11,27,16,48,8.80
2018,11,27,16,49,8.80
2018,11,27,16,50,8.80
2018,11,27,16,51,8.80
2018,11,27,16,52,8.80
2018,11,27,16,53,8.80
2018,11,27,16,54,8.80
2018,11,27,16,55,8.80
2018,11,27,16,56,8.80
2018,11,27,16,57,8.90
2018,11,27,16,58,8.90
2018,11,27,16,59,8.90
2018,11,27,17,00,8.90
2018,11,27,17,01,8.90
2018,11,27,17,02,8.90
2018,11,27,17,03,8.90
2018,11,27,17,04,8.90
2018,11,27,17,05,9.00
2018,11,27,17,06,9.00
2018,11,27,17,07,9.00
2018,11,27,17,08,9.10
2018,11,27,17,09,9.10
2018,11,27,17,10,9.10
2018,11,27,17,11,9.10
2018,11,27,17,12,9.10
2018,11,27,17,13,9.10
2018,11,27,17,14,9.10
2018,11,27,17,15,9.10
2018,11,27,17,16,9.10
2018,11,27,17,17,9.10
2018,11,27,17,18,9.20
2018,11,27,17,19,9.20
2018,11,27,17,20,9.20
2018,11,27,17,21,9.20
2018,11,27,17,22,9.20
2018,11,27,17,23,9.20
2018,11,27,17,24,9.20
2018,11,27,17,25,9.20
2018,11,27,17,26,9.20
2018,11,27,17,27,9.20
2018,11,27,17,28,9.20
2018,11,27,17,29,9.20
2018,11,27,17,30,9.30
2018,11,27,17,31,9.30
2018,11,27,17,32,9.30
2018,11,27,17,33,9.20